Location: Unspecified
(0.0000°N, 0.0000°E)
Time: 07:58:22
(UTC+02:00)

Tiros 1 despin weight - All Passes

Search period start: 01 October 2014 00:00
Search period end: 11 October 2014 00:00
Orbit: 601 x 652 km, 48.2° (Epoch: 30 September)

Date Brightness Start Highest point End Pass type
(mag) Time Alt. Az. Time Alt. Az. Time Alt. Az.
01 Oct - 02:40:08 10° N 02:43:19 18° NE 02:46:32 10° E night (unlit)
01 Oct - 04:20:44 10° WNW 04:24:54 33° SW 04:29:09 10° SSE night (unlit)
01 Oct - 14:49:12 10° S 14:53:12 30° SE 14:57:09 10° ENE daylight
01 Oct - 16:31:32 10° W 16:34:46 19° NW 16:37:58 10° N daylight
02 Oct - 02:58:07 10° NNW 03:02:35 52° NE 03:07:07 10° SE night (unlit)
02 Oct - 04:42:20 10° WSW 04:44:15 12° SW 04:46:11 10° SSW night (unlit)
02 Oct - 15:07:53 10° SW 15:12:28 90° NW 15:16:57 10° NE daylight
03 Oct - 01:38:32 10° NNE 01:40:14 12° NE 01:41:55 10° ENE night (unlit)
03 Oct - 03:17:21 10° NW 03:21:49 52° SW 03:26:23 10° SSE night (unlit)
03 Oct - 13:46:46 10° S 13:50:07 20° SE 13:53:25 10° E daylight
03 Oct - 15:27:44 10° WSW 15:31:42 30° NW 15:35:37 10° N daylight
04 Oct - 01:55:25 10° NNW 01:59:31 33° NE 02:03:41 10° ESE night (unlit)
04 Oct - 03:37:53 10° W 03:41:07 19° SW 03:44:24 10° S night (unlit)
04 Oct - 14:04:53 10° SSW 14:09:24 57° SE 14:13:50 10° NE daylight
04 Oct - 15:50:10 10° WNW 15:51:00 10° NW 15:51:49 10° NW daylight
05 Oct - 02:14:11 10° NW 02:18:44 83° SW 02:23:24 10° SE night (unlit)
05 Oct - 12:44:50 10° SSE 12:46:59 13° SE 12:49:07 10° ESE daylight
05 Oct - 14:24:13 10° SW 14:28:37 47° NW 14:32:57 10° NNE daylight
06 Oct - 00:52:58 10° N 00:56:25 21° NE 00:59:55 10° E night (unlit)
06 Oct - 02:34:04 10° WNW 02:37:59 28° SW 02:41:59 10° S night (unlit)
06 Oct - 13:02:03 10° SSW 13:06:18 36° SE 13:10:28 10° ENE daylight
06 Oct - 14:44:57 10° W 14:47:52 17° NW 14:50:45 10° N daylight
07 Oct - 01:11:10 10° NNW 01:15:38 62° NE 01:20:12 10° SE night (unlit)
07 Oct - 02:57:02 10° SW 02:57:20 10° SW 02:57:38 10° SW night (unlit)
07 Oct - 13:20:55 10° SW 13:25:32 76° NW 13:30:03 10° NE daylight
07 Oct - 23:50:58 10° NNE 23:53:17 14° NE 23:55:37 10° E night (unlit)
08 Oct - 01:30:32 10° WNW 01:34:51 43° SW 01:39:15 10° SSE night (unlit)
08 Oct - 11:59:26 10° S 12:03:09 24° SE 12:06:49 10° ENE daylight
08 Oct - 13:40:55 10° WSW 13:44:44 25° NW 13:48:29 10° N daylight
09 Oct - 00:08:20 10° NNW 00:12:31 38° NE 00:16:47 10° ESE night (unlit)
09 Oct - 01:51:23 10° W 01:54:08 16° SW 01:56:56 10° SSW night (unlit)
09 Oct - 12:17:46 10° SSW 12:22:24 68° SE 12:26:56 10° NE daylight
10 Oct - 00:27:14 10° NW 00:31:43 70° SW 00:36:18 10° SSE night (unlit)
10 Oct - 10:57:10 10° SSE 10:59:58 16° SE 11:02:44 10° E daylight
10 Oct - 12:37:15 10° WSW 12:41:35 39° NW 12:45:51 10° NNE daylight
10 Oct - 23:05:43 10° N 23:09:23 25° NE 23:13:06 10° ESE night (unlit)
